Theta_e
346 346 346 345 345 344 345 345 342 339 344 342 342 342 339 343 349 346 345 345 347 344 346 344 344 345 343 342 345 343 340 336 333 338 343 343 340 339 351 347 347 343 342
346 346 346 346 346 344 344 345 344 336 342 346 345 344 345 346 346 346 346 347 344 344 344 342 342 348 346 343 343 341 344 338 334 332 338 339 339 341 344 345 346 347 342
346 344 343 344 345 345 346 346 345 345 346 348 347 345 345 346 346 347 347 348 347 346 346 346 346 345 344 344 343 342 342 344 341 335 334 339 340 342 342 345 344 342 342
345 345 344 345 346 346 347 347 347 348 347 347 347 347 347 348 349 348 347 348 348 349 348 348 347 345 343 344 343 342 340 341 339 339 336 337 339 340 338 340 341 338 338
345 346 345 347 347 348 347 346 345 346 348 347 345 347 348 349 351 349 347 347 346 346 347 347 348 349 346 344 347 344 340 339 338 338 337 334 335 336 336 337 338 337 336
346 344 348 347 347 346 346 346 347 348 348 347 346 345 345 351 343 339 343 344 344 345 345 347 348 347 346 342 340 341 344 340 337 335 336 334 334 335 336 337 336 338 334
344 343 346 348 348 346 346 344 344 344 344 345 345 345 345 345 337 335 339 343 343 342 342 343 345 349 345 346 341 337 336 338 339 339 336 334 334 338 337 335 335 338 336
342 346 346 345 346 346 345 344 344 345 345 346 346 345 345 345 336 333 336 340 342 343 344 343 342 343 344 343 343 343 344 343 340 340 343 344 344 344 341 339 338 338 334
342 346 346 346 345 346 344 343 343 342 343 343 345 344 343 343 333 331 333 341 342 343 343 343 342 341 336 333 340 341 340 341 340 333 335 335 335 336 340 339 337 336 335
343 346 349 348 347 345 343 342 344 343 342 342 341 342 338 342 332 328 330 339 339 340 339 339 330 331 322 321 334 336 336 340 341 343 342 335 333 337 333 342 340 336 334
346 347 348 347 346 345 345 343 341 339 339 338 338 337 337 338 338 329 324 338 338 336 336 335 338 323 321 320 320 334 334 332 337 337 338 340 340 341 339 338 342 342 337
347 347 346 346 348 347 342 338 338 338 335 331 330 331 334 333 321 327 321 325 330 337 333 333 335 321 318 316 318 323 320 323 332 333 335 335 337 337 336 336 338 339 339
346 344 343 343 343 341 337 335 334 333 331 330 331 330 330 330 330 318 318 320 323 329 329 323 317 314 312 314 316 317 317 326 329 327 327 328 333 332 329 328 328 327 324
340 339 338 336 336 337 336 336 334 332 332 334 332 325 324 320 321 322 325 325 321 324 320 318 319 319 318 320 321 324 325 326 329 327 328 330 329 328 327 325 324 324 319
339 337 336 335 336 337 334 331 335 335 332 329 327 325 323 319 318 311 312 316 315 309 309 314 316 316 318 319 321 325 329 330 332 333 329 327 324 322 321 321 321 320 317
336 336 336 337 336 336 335 329 309 308 305 309 314 318 313 308 303 301 299 299 301 302 308 310 312 313 314 316 317 321 327 329 327 326 324 323 321 319 318 318 319 318 314
336 335 335 333 331 333 332 330 328 317 307 304 304 302 303 304 300 298 299 298 298 301 309 310 311 313 318 322 325 327 324 324 322 321 320 319 317 317 316 317 317 315 314
332 324 329 327 324 323 321 321 322 321 319 318 306 306 299 298 297 297 298 298 307 303 308 315 318 321 324 324 324 323 321 320 319 318 317 316 316 315 315 315 316 315 314
327 325 323 320 322 322 322 319 318 316 316 319 311 307 303 297 296 297 299 309 315 319 322 323 322 322 321 320 321 320 319 318 317 316 315 315 315 315 314 315 315 311 312
326 322 323 319 318 318 318 319 319 319 320 320 317 316 313 309 312 312 310 314 320 321 321 320 320 319 318 318 318 317 315 314 314 313 313 314 314 314 314 315 316 315 315
327 327 323 319 320 319 320 320 318 317 316 318 320 317 310 316 316 315 314 316 317 316 320 319 318 318 318 317 316 315 314 313 313 312 312 313 314 313 315 315 316 315 314
325 323 322 321 320 320 318 317 318 318 317 318 315 312 302 317 318 315 316 319 320 320 320 316 316 317 317 316 316 315 314 313 313 313 313 314 314 315 314 314 313 313 313
327 323 322 321 320 318 317 317 316 317 318 318 316 315 314 318 319 319 320 321 321 319 315 318 315 315 316 317 316 316 315 314 314 314 313 313 313 313 313 313 313 311 310
325 325 322 321 319 318 318 318 318 313 318 318 318 317 316 319 321 321 320 321 324 320 316 315 315 315 314 313 313 315 316 316 315 314 314 313 312 308 309 309 309 308 306
324 322 321 321 319 318 317 319 317 319 319 319 319 318 319 319 322 322 320 321 320 319 318 317 316 317 317 316 314 314 306 302 311 307 315 315 314 314 313 313 311 309 305
321 321 321 322 320 319 319 318 318 318 318 319 319 318 319 323 324 324 321 321 319 318 318 318 316 316 315 317 317 306 291 294 306 298 315 317 316 315 316 315 312 306 305
Wind_Speed
12 11 10 9 8 6 6 5 6 5 6 6 5 5 5 5 6 5 6 5 4 4 3 4 5 3 2 2 2 0 2 3 3 3 3 1 3 4 5 3 5 5 4
13 11 10 9 7 7 6 7 7 7 7 6 6 6 7 6 5 6 6 5 6 5 6 5 6 3 5 3 2 2 2 2 3 4 2 3 5 2 3 4 4 5 6
11 10 8 7 7 8 7 7 7 7 7 6 7 7 7 7 6 6 6 6 6 6 6 5 6 5 6 4 4 4 3 3 3 3 4 2 3 3 3 2 3 3 3
12 11 11 11 10 9 8 7 7 7 6 7 7 7 6 6 6 6 6 6 6 6 6 6 6 6 6 6 5 6 4 4 3 3 3 3 4 1 1 3 3 2 3
13 11 11 9 9 8 7 7 6 6 7 7 7 6 6 6 6 6 6 6 6 7 7 6 7 8 11 8 4 5 5 4 2 4 3 3 3 2 5 3 4 3 4
12 12 11 9 9 9 7 7 6 7 6 6 6 6 7 5 8 8 7 6 6 6 7 7 7 8 8 11 10 11 7 6 5 4 3 4 4 4 3 4 4 3 3
11 8 8 9 9 8 7 6 6 6 5 5 6 6 6 6 8 10 9 5 6 6 6 6 6 6 8 6 7 8 8 11 9 6 6 6 4 7 5 5 5 6 5
9 8 7 8 8 6 6 6 5 4 5 4 5 5 5 5 9 10 10 5 6 6 6 6 6 6 6 6 6 6 7 6 8 6 8 9 8 6 7 6 7 5 2
8 8 8 7 7 6 6 6 4 4 4 4 3 4 5 6 9 10 6 5 6 6 5 6 5 6 8 8 5 7 6 6 7 14 14 14 13 13 8 4 4 4 4
8 8 7 7 6 6 6 6 4 3 4 4 4 6 8 7 7 9 8 4 4 4 4 3 2 1 5 2 4 5 6 9 5 6 4 7 10 9 10 8 5 7 3
7 7 7 7 7 6 6 3 4 4 4 4 4 4 4 5 6 8 8 5 4 3 3 2 2 2 3 2 3 3 5 3 5 4 4 4 4 4 4 7 8 7 5
7 7 6 6 5 5 7 3 3 5 4 4 3 3 3 3 5 8 9 6 5 3 2 1 2 6 6 7 4 9 8 5 3 4 3 3 3 2 2 2 3 3 3
7 6 5 6 6 6 6 6 4 4 3 4 3 1 1 2 3 8 6 7 4 2 1 2 3 5 7 6 11 11 6 4 3 3 3 2 1 1 3 2 3 5 4
8 7 7 7 5 5 4 4 4 3 3 4 3 3 3 1 1 2 3 2 3 3 1 3 5 8 8 7 5 5 4 4 4 4 3 2 2 1 1 2 2 2 2
8 6 6 5 6 4 3 2 3 4 5 5 5 5 5 4 4 4 3 2 1 3 4 2 2 2 4 4 4 4 4 5 5 3 2 2 2 3 2 2 2 2 2
6 5 5 4 4 4 4 3 7 5 7 4 8 7 2 1 10 6 2 2 4 2 1 3 3 3 4 4 5 4 1 2 2 2 2 2 3 3 2 2 1 2 3
7 6 4 4 4 4 3 4 4 2 6 6 5 4 6 11 8 8 6 5 5 4 3 3 4 4 5 4 4 2 3 2 1 2 2 3 2 2 3 2 4 5 5
6 8 5 5 4 3 3 3 3 4 3 3 1 3 2 7 8 8 5 4 1 3 3 4 3 3 3 1 2 1 1 2 2 2 2 2 2 3 3 3 4 6 6
6 5 5 4 3 4 4 3 3 2 3 2 2 1 4 3 4 3 3 4 3 3 3 3 2 1 1 2 2 1 2 2 1 2 2 2 3 3 4 4 5 7 9
6 9 6 5 4 3 2 1 2 1 2 3 3 4 4 3 3 3 4 3 4 3 3 3 2 2 2 1 1 1 2 2 2 2 2 3 3 4 5 6 6 8 7
4 5 7 4 4 3 2 1 2 2 2 3 4 5 8 4 4 4 4 4 3 3 3 2 2 1 1 1 2 2 3 3 3 3 3 3 4 4 4 5 6 6 7
5 5 5 5 4 4 3 3 3 2 2 3 2 3 3 3 3 3 4 4 3 3 2 2 1 1 1 2 3 3 3 3 3 3 3 3 4 5 5 5 5 6 5
5 5 5 4 5 5 3 4 3 3 3 3 4 4 3 3 4 4 3 3 3 2 1 1 2 2 1 2 2 2 3 3 3 4 4 3 4 5 5 6 4 3 2
5 6 6 5 5 5 5 5 4 3 5 4 4 4 4 4 4 4 4 4 3 3 3 2 3 4 3 3 2 2 3 4 3 4 4 4 4 5 4 4 4 3 3
5 5 5 6 5 5 4 4 5 5 4 4 4 4 4 4 4 3 3 3 3 4 4 4 3 4 5 6 5 4 5 10 6 6 4 5 5 5 4 3 3 2 3
2 2 4 4 4 4 4 5 5 5 5 5 4 4 4 4 4 3 5 5 4 4 5 4 5 7 6 5 6 7 7 8 7 8 4 4 5 4 4 5 6 4 6
Wind_Direction
187 182 176 190 189 190 191 197 175 206 211 188 179 170 198 214 219 209 221 230 217 269 263 234 265 273 261 234 272 76 118 148 156 281 230 235 254 218 152 179 203 188 192
186 182 182 179 182 192 199 208 181 194 204 209 187 192 203 214 200 214 217 227 223 241 258 273 271 285 289 264 229 221 198 199 146 228 258 239 220 259 182 176 199 190 189
183 178 183 185 177 197 198 211 206 202 198 207 197 202 208 215 213 207 208 226 233 229 232 242 260 257 265 263 251 243 219 203 195 170 251 241 237 202 203 202 184 175 205
182 185 186 188 193 197 199 208 208 205 211 206 211 204 208 215 221 227 220 224 233 237 232 225 238 240 238 249 250 245 228 222 211 199 205 241 248 214 177 170 205 166 181
181 184 200 188 193 194 194 211 210 209 210 204 202 210 215 208 216 217 224 230 228 239 239 233 236 230 224 229 216 250 237 225 225 227 226 189 203 190 200 198 205 168 191
182 189 197 184 191 195 195 209 204 213 207 187 189 199 213 218 217 211 195 217 233 233 239 236 231 237 241 244 223 231 207 198 215 201 224 214 212 207 212 189 151 182 240
182 179 178 179 196 198 188 195 206 205 198 188 195 196 219 218 214 201 209 230 232 236 235 239 252 246 229 232 243 238 233 229 222 208 222 218 222 211 186 186 183 191 209
178 167 171 176 180 183 183 187 192 179 178 174 193 201 219 240 216 209 201 215 223 234 236 243 240 253 248 235 240 241 236 224 228 224 228 239 225 217 197 198 197 201 109
180 175 179 175 175 176 181 183 170 176 183 187 200 223 230 251 231 231 185 208 232 241 248 255 252 262 258 249 245 250 256 250 239 223 227 230 226 224 207 153 204 177 217
177 178 176 175 167 175 183 174 166 172 192 181 212 223 228 242 249 242 192 199 230 239 270 288 18 2 0 318 237 245 254 259 239 259 246 251 243 245 213 213 208 215 203
168 164 170 167 169 171 168 165 170 176 180 211 223 245 259 258 262 243 215 197 202 212 234 257 272 284 298 286 207 235 237 325 285 277 275 268 265 253 234 213 216 217 222
160 167 171 167 159 154 162 164 177 180 197 218 241 289 319 356 344 256 190 171 174 204 213 212 254 237 266 283 270 259 265 284 274 277 261 268 270 290 55 335 300 271 286
148 159 163 160 159 158 152 174 184 195 214 246 233 219 139 35 46 78 100 128 122 135 148 196 270 283 268 272 259 256 239 230 240 257 268 273 63 110 113 75 43 55 44
142 148 150 145 161 176 188 189 192 201 217 251 207 180 160 157 110 73 94 124 159 170 104 321 291 282 271 263 283 249 227 217 215 229 223 160 137 132 158 160 176 164 66
138 145 161 170 178 204 213 213 226 232 194 194 200 171 171 204 215 163 149 161 277 52 336 302 296 286 290 296 300 284 245 202 197 179 179 190 203 183 202 193 172 139 146
153 170 181 174 194 212 200 202 69 39 11 301 175 158 182 277 131 149 139 289 294 314 208 240 257 259 259 268 271 280 275 143 152 176 203 209 222 194 174 167 155 144 131
164 182 184 181 196 216 197 200 231 22 51 26 356 153 165 163 172 181 199 230 241 174 235 242 248 249 251 255 254 215 178 171 157 213 217 208 179 142 157 149 129 125 120
170 178 173 174 174 173 169 181 170 179 217 254 230 351 82 149 179 194 195 155 171 230 240 252 252 263 277 308 312 269 208 188 213 209 184 164 158 135 139 129 133 134 125
163 169 157 157 161 177 168 179 194 182 218 202 102 66 166 218 218 237 252 253 221 265 268 289 232 245 289 297 280 240 205 211 202 151 138 134 134 130 126 121 121 125 124
173 163 158 152 144 161 175 244 282 220 196 177 194 203 150 175 240 242 232 248 254 260 271 282 283 275 271 265 201 149 127 127 119 109 115 117 115 124 129 128 132 130 128
172 176 155 133 144 144 140 118 153 151 176 213 201 184 186 195 231 239 243 248 253 259 254 239 251 262 253 169 153 143 133 125 121 121 122 121 123 120 112 116 120 120 127
177 167 159 166 147 140 155 150 172 160 157 161 171 157 209 237 247 240 244 249 249 243 230 202 205 214 209 174 152 143 137 130 126 122 118 118 121 122 122 120 110 110 107
175 166 164 154 151 156 165 176 178 151 172 180 195 181 181 225 230 231 233 237 231 164 184 152 151 150 142 148 149 150 137 133 128 127 123 119 126 130 128 119 119 105 113
171 173 167 169 161 174 173 167 175 180 171 194 200 211 196 208 213 214 229 250 200 162 158 176 192 176 171 153 157 167 133 118 122 125 117 125 116 118 119 124 145 157 151
177 173 170 184 187 173 159 166 177 188 194 205 197 194 201 200 218 214 232 236 207 183 199 196 219 220 191 173 179 200 149 140 143 148 146 141 149 163 171 176 176 195 158
172 178 179 173 159 160 160 164 187 194 201 199 190 199 211 201 216 223 208 216 223 213 213 218 216 201 186 182 182 166 165 184 178 195 175 184 188 204 204 218 212 192 174